Home > Weather > Petah Tikva > Past weeks

Flag for Israel Past Weather in Petah Tikva, Israel — Yesterday and Last 2 Weeks

Now
66 °F

Passing clouds.


Feels Like: 66 °F
Forecast: 66 / 83 °F
Wind: 2 mph from North

Location: Ben Gurion International Airport

Current Time: May 30, 2016 at 4:25:36 AM

Latest Report: May 30, 2016 at 3:50 AM


Visibility: N/A

Pressure: 29.98 "Hg

Humidity: 78%

Dew Point: 59 °F

Location of Petah TikvaLocation

Past Weather in Petah Tikva — Graph

°F

Petah Tikva Temperature Yesterday

Maximum temperature yesterday: 77 °F (at 11:50 AM)
Minimum temperature yesterday: 66 °F (at 3:50 AM)
Average temperature yesterday: 72 °F

High & Low Weather Summary for the Past Weeks

 TemperatureHumidityPressure
High106 °F (May 15, 12:50 PM)88% (May 17, 6:50 AM)30.01 "Hg (May 17, 6:50 AM)
Low63 °F (May 20, 4:50 AM)9% (May 22, 11:50 AM)29.71 "Hg (May 16, 5:50 PM)
Average75 °F57%29.90 "Hg
* Reported May 15 3:20 AM — May 30 3:20 AM, Petah Tikva, Weather by CustomWeather, © 2016

Note: Actual official high and low records may vary slightly from our data, if they occured in-between our weather recording intervals... More about our weather records

Advertising

Petah Tikva Weather History for the Previous 24 Hours

Scroll right to see more
 ConditionsComfort  
Time TempWeatherWind HumidityBarometerVisibility
3:20 AM
Mon, May 30
66 °FPassing clouds.5 mph78%29.95 "HgN/A
2:50 AM66 °FPassing clouds.7 mph78%29.95 "HgN/A
2:20 AM68 °FPassing clouds.8 mph73%29.98 "HgN/A
1:50 AM68 °FPassing clouds.2 mph73%29.98 "HgN/A
1:20 AM68 °FClear.2 mph73%29.98 "Hg10 mi
12:50 AM68 °FClear.3 mph78%29.98 "Hg10 mi
12:20 AM70 °FClear.2 mph73%29.98 "Hg10 mi
11:50 PM
Sun, May 29
70 °FClear.5 mph73%29.98 "Hg10 mi
11:20 PM70 °FClear.3 mph73%29.98 "Hg10 mi
10:50 PM70 °FClear.6 mph73%29.98 "Hg10 mi
10:20 PM72 °FClear.3 mph69%29.98 "Hg10 mi
9:50 PM72 °FClear.6 mph69%29.98 "Hg10 mi
9:20 PM72 °FClear.7 mph69%29.98 "Hg10 mi
8:50 PM72 °FClear.6 mph69%29.98 "Hg10 mi
8:20 PM72 °FSunny.7 mph65%29.98 "Hg10 mi
7:50 PM72 °FSunny.8 mph65%29.98 "Hg10 mi
7:20 PM73 °FSunny.9 mph61%29.95 "Hg10 mi
6:50 PM73 °FSunny.9 mph61%29.95 "Hg10 mi
6:20 PM75 °FPassing clouds.8 mph54%29.95 "HgN/A
5:50 PM75 °FPassing clouds.9 mph54%29.95 "HgN/A
5:20 PM77 °FPassing clouds.10 mph51%29.95 "HgN/A
4:50 PM75 °FPassing clouds.13 mph54%29.95 "HgN/A
4:20 PM77 °FPassing clouds.12 mph51%29.95 "HgN/A
3:50 PM77 °FPassing clouds.12 mph51%29.95 "HgN/A
3:20 PM77 °FPassing clouds.13 mph51%29.95 "HgN/A
2:50 PM77 °FPassing clouds.13 mph51%29.95 "HgN/A
2:20 PM77 °FPassing clouds.14 mph51%29.95 "HgN/A
1:50 PM77 °FPassing clouds.14 mph51%29.95 "HgN/A
1:20 PM77 °FPassing clouds.15 mph51%29.95 "HgN/A
12:50 PM77 °FPassing clouds.14 mph51%29.95 "HgN/A
12:20 PM77 °FPassing clouds.12 mph51%29.95 "HgN/A
11:50 AM77 °FPassing clouds.8 mph54%29.95 "HgN/A
11:20 AM75 °FScattered clouds.8 mph57%29.95 "HgN/A
10:50 AM75 °FScattered clouds.9 mph57%29.95 "HgN/A
10:20 AM75 °FScattered clouds.9 mph57%29.95 "HgN/A
9:50 AM75 °FScattered clouds.5 mph54%29.95 "HgN/A
9:20 AM73 °FScattered clouds.6 mph61%29.98 "HgN/A
8:50 AM72 °FScattered clouds.7 mph65%29.95 "HgN/A
8:20 AM72 °FScattered clouds.8 mph65%29.95 "HgN/A
7:50 AM70 °FPassing clouds.9 mph69%29.95 "HgN/A
7:20 AM68 °FPassing clouds.8 mph73%29.95 "HgN/A
6:50 AM66 °FPassing clouds.8 mph78%29.92 "HgN/A
6:20 AM66 °FPassing clouds.7 mph78%29.92 "HgN/A
5:20 AM66 °FPassing clouds.7 mph78%29.92 "HgN/A
4:50 AM66 °FPassing clouds.5 mph78%29.89 "HgN/A
4:20 AM66 °FPassing clouds.8 mph78%29.89 "HgN/A
Weather by CustomWeather, © 2016

See weather overviewHow to use our weather pages